Location: Fiddletown
(38.4917°N, 120.6633°W)
Time: 14:33:34
(UTC-07:00)

Envisat - Visible Passes

Search period start: 26 April 2017 00:00
Search period end: 06 May 2017 00:00
Orbit: 764 x 766 km, 98.2° (Epoch: 25 April)

Date Brightness Start Highest point End Pass type
(mag) Time Alt. Az. Time Alt. Az. Time Alt. Az.
26 Apr 3.0 21:11:46 12° SSE 21:16:28 84° WSW 21:21:35 10° NNW visible
27 Apr 3.5 20:35:08 10° SE 20:39:54 43° ENE 20:44:41 10° N visible
27 Apr 5.2 22:15:21 10° SW 22:19:03 20° W 22:22:48 10° NW visible
28 Apr 3.9 21:37:34 11° S 21:42:09 46° W 21:47:02 10° NNW visible
29 Apr 2.9 21:00:22 10° SSE 21:05:25 77° ENE 21:10:31 10° N visible
29 Apr 5.7 22:43:43 10° WSW 22:44:58 11° W 22:46:12 10° WNW visible
30 Apr 3.8 20:24:22 10° SE 20:28:53 34° ENE 20:33:26 10° N visible
30 Apr 4.8 22:03:43 10° SSW 22:07:54 26° W 22:12:08 10° NW visible
01 May 3.5 21:26:08 10° S 21:31:03 60° W 21:36:05 10° NNW visible
02 May 3.1 20:49:24 10° SSE 20:54:23 60° ENE 20:59:24 10° N visible
02 May 5.5 22:31:05 10° WSW 22:33:46 14° W 22:36:28 10° WNW visible
03 May 4.5 21:52:14 10° SSW 21:56:46 33° W 22:01:20 10° NNW visible
04 May 3.1 21:14:54 10° S 21:19:58 77° WSW 21:25:04 10° NNW visible
05 May 3.4 20:38:31 10° SE 20:43:22 47° ENE 20:48:13 10° N visible
05 May 5.3 22:19:07 10° SW 22:22:35 18° W 22:26:05 10° NW visible
